Regional Weather Roundup
Issued by NWS Upton, NY

Current Version | Previous Version | Graphics & Text | Print | Product List | Glossary Off
Versions: 1 2 3 4 5 6 7 8 9 10 11 12 13 14 15 16 17 18 19 20 21 22 23 24 25 26 27 28 29 30 31 32 33 34 35 36 37 38 39 40 41 42 43 44 45 46 47 48 49 50

000
ASUS41 KOKX 241709
RWROKX

REGIONAL WEATHER ROUNDUP
NATIONAL WEATHER SERVICE NEW YORK NY
100 PM EDT SUN SEP 24 2017

NOTE: "FAIR" INDICATES FEW OR NO CLOUDS BELOW 12,000 FEET WITH NO
SIGNIFICANT WEATHER AND/OR OBSTRUCTIONS TO VISIBILITY.

NYZ071-072-176-178-NJZ106-104-241800-
NEW YORK CITY METRO AREA

CITY           SKY/WX    TMP DP  RH WIND       PRES   REMARKS
Central Park   SUNNY     89  62  40 CALM      30.09F
Bronx Bot Gard   N/A     86  63  45 SE9       30.08S
LaGuardia APRT SUNNY     87  64  46 NE9       30.05F
Kennedy INTL   SUNNY     90  64  42 NE10      30.06F HX  91
Breezy Point     N/A     81 N/A N/A SW5         N/A
Newark/Liberty SUNNY     89  62  40 NE10      30.06F
Teterboro      SUNNY     88  62  41 CALM      30.05F
$$

NYZ177-179-078>081-241800-
LONG ISLAND NEW YORK

CITY           SKY/WX    TMP DP  RH WIND       PRES   REMARKS
Jones Beach      N/A     81 N/A N/A S5          N/A
Matinecock PT    N/A     81 N/A N/A E5          N/A
Farmingdale    SUNNY     85  65  51 NE7       30.06F
MacArthur/ISP  SUNNY     86  64  47 N5        30.05F
Shirley        SUNNY     88  66  48 VRB6      30.06S HX  90
Mt Sinai Harb    N/A     81 N/A N/A CALM        N/A
Westhampton    SUNNY     85  61  44 N8        30.07S
East Hampton   FAIR      80  62  53 SE8       30.05S
Montauk          N/A     77  60  55 VRB3      30.07S
$$

NYZ052-065-067-241800-
HUDSON VALLEY

CITY           SKY/WX    TMP DP  RH WIND       PRES   REMARKS
White Plains   SUNNY     88  63  43 E3        30.07F
Larchmont Harb   N/A     79 N/A N/A MISG        N/A
Croton On Huds   N/A     81 N/A N/A W8          N/A
Newburgh       SUNNY     84  68  58 NW7       30.11S
Montgomery     SUNNY     85  65  51 NE3       30.08F
Poughkeepsie   SUNNY     84  65  52 NW5       30.07F
Albany         SUNNY     85  65  51 W3        30.08F
$$

NJZ001-105-106-008-010-013-015-019>022-104-241800-
NEW JERSEY

CITY           SKY/WX    TMP DP  RH WIND       PRES   REMARKS
Newark/Liberty SUNNY     89  62  40 NE10      30.06F
Teterboro      SUNNY     88  62  41 CALM      30.05F
Caldwell       SUNNY     88  66  48 NW5       30.07F HX  90
Somerville     NOT AVBL
Linden         NOT AVBL
Perth Amboy      N/A     81 N/A N/A SE8         N/A
Sussex         SUNNY     86  67  52 SE5       30.09F
Andover          N/A     85  66  53 N6        30.10F
Trenton        SUNNY     88  66  48 N7        30.06F HX  90
Millville      SUNNY     89  66  46 VRB5      30.06F HX  91
Atlantic City  SUNNY     86  65  49 E10       30.06S
Wrightstown    SUNNY     86  65  49 NE6       30.03F
Toms River     SUNNY     86  63  45 VRB6      30.07F
Belmar         SUNNY     85  64  49 E10       30.08F
$$

PAZ047>061-062-071-241800-
EASTERN PENNSYLVANIA

CITY           SKY/WX    TMP DP  RH WIND       PRES   REMARKS
Philadelphia   MOSUNNY   89  64  43 E9        30.06F HX  90
Allentown      SUNNY     88  65  46 E7        30.09F HX  90
Scranton       SUNNY     84  66  54 W5        30.13F
$$

CTZ002-004>006-009-010-012-RIZ004-006-007-MAZ004-011-015-241800-
SOUTHERN NEW ENGLAND
 IN CT

CITY           SKY/WX    TMP DP  RH WIND       PRES   REMARKS
Bradley INTL   SUNNY     86  64  47 N5        30.06F
Hartford       SUNNY     87  66  49 NW5       30.05F
Danbury        SUNNY     87  66  49 N6        30.09S
Wtrbury/Oxford SUNNY     84  65  52 CALM      30.10S
Norwalk Harbor   N/A     79 N/A N/A S6          N/A
Bridgeport     SUNNY     82  65  56 S6        30.06S
Meriden        SUNNY     88  63  43 NE5       30.05F
New Haven      SUNNY     81  65  58 S6        30.06S
Chester        FAIR      88  64  45 NE5       30.06F
Groton         SUNNY     76  65  68 S8        30.05R
Wilimantic     SUNNY     89  65  44 E5        30.05S HX  91

 IN RI

CITY           SKY/WX    TMP DP  RH WIND       PRES   REMARKS
Providence     SUNNY     85  66  53 E6        30.05F
Block Island   SUNNY     76  57  51 VRB5      30.06F
Westerly       SUNNY     78  65  63 SE7       30.06R
 IN MA

CITY           SKY/WX    TMP DP  RH WIND       PRES   REMARKS
Boston         SUNNY     77  63  61 SE6       30.05F
Worcester      SUNNY     82  63  52 CALM      30.09F
Westfield      SUNNY     88  63  43 NE6       30.05F
Provincetown   SUNNY     71  65  81 N5        30.06S
Nantucket      MOSUNNY   72  68  87 NE9       30.04F
$$

ANZ330-335-338-340-345-350-353-355-241800-
COASTAL MARINE OBSERVATIONS


STATION/POSITION TIME  SKY/WX   TEMP    WIND        PRES    VSBY  WAVE
                                AIR SEA DIR/SP/G                  HT/PER
                 (UTC)          (F)     (DEG/KT/KT) (MB)    (MI)  (FT/S)
NY HARB ENTRANCE 1550            73 72  290/  6/  6 1017.5          3/12
20 S FIRE ISLAND 1550            69 68  360/  4/  6 1018.0          4/15
GREAT SOUTH BAY  1615            76 73   CALM  /  4   N/A
23 SSW MONTAUK P 1550            66 65              1018.2          5/15
15 E BARNEGAT LI 1630               71                N/A           4/12
HUDSON CANYON    1550            69 69   10/  2/  4 1017.2          6/12
KINGS POINT      1630            80 72   30/  4/  5 1018.8
EXECUTION ROCKS  1645            80     120/  6/  6   N/A
WESTERN LI SOUND NOT AVBL
CENTRAL LI SOUND 1645            72     240/  6/  8   N/A           1
EASTERN LI SOUND NOT AVBL
ROBBINS REEF     1630            82      10/  2/  3 1018.7
$$


>>>>>>>>>>>>>>>>>>>>>>>>>>>> KEY <<<<<<<<<<<<<<<<<<<<<<<<<<<
>                                                          <
>     SKY/WX - Sky Condition/Present Weather               <
>     TMP    - Temperature in Fahrenheit                   <
>     DP     - Dew Point in Fahrenheit                     <
>     RH     - Relative Humidity in Percent                <
>     WIND   - Direction (from) and Speed in MPH           <
>     PRES   - Mean Sea Level Pressure (inches of Hg)      <
>     WCI    - Wind Chill Index                            <
>     VSB    - VISIBILITY IN MILES                         <
>     HX     - HEAT INDEX                                  <
>     TC     - TEMPERATURE IN CELSIUS                      <
>     VRB    - VARIABLE WIND DIRECTION                     <
>                                                          <
>>>>>>>>>>>>>>>>>>>>>>>>>>>> KEY <<<<<<<<<<<<<<<<<<<<<<<<<<<



USA.gov is the U.S. government's official web portal to all federal, state and local government web resources and services.